When you browse on this site, cookies collect data to enhance your experience and personalize the content and advertising you see.
Visit our Privacy Policy to learn more. By continuing to use the site, you agree to this use of cookies and data.
  • In Netherlands
  • List of Countries
  • For 7 days
  • Water Temperature
  • Weather Map
  • Weather Widgets
  • user-avatar
    Login

    Hourly Weather Mishni

    Today, 4 June, Thursday

    Time Temperature Precipitation Wind Pressure Humidity
    00:00 +9°C° 0 mm 1 mps 735 mmHg 89%
    01:00 +9°C° 0 mm 1 mps 735 mmHg 89%
    02:00 +9°C° 0 mm 1 mps 735 mmHg 90%
    03:00 +9°C° 0 mm 1 mps 734 mmHg 90%
    04:00 +9°C° 0 mm 0 mps 734 mmHg 90%
    05:00 +9°C° 0 mm 0 mps 734 mmHg 89%
    06:00 +11°C° 0 mm 1 mps 734 mmHg 86%
    07:00 +13°C° 0 mm 1 mps 734 mmHg 83%
    08:00 +14°C° 0 mm 1 mps 734 mmHg 80%
    09:00 +15°C° 0.5 mm 2 mps 734 mmHg 79%
    10:00 +14°C° 0.5 mm 3 mps 733 mmHg 78%
    11:00 +15°C° 0.5 mm 4 mps 733 mmHg 76%
    12:00 +15°C° 0.6 mm 4 mps 733 mmHg 76%
    13:00 +15°C° 0.6 mm 4 mps 733 mmHg 76%
    14:00 +15°C° 0.6 mm 4 mps 733 mmHg 76%
    15:00 +15°C° 0.2 mm 4 mps 733 mmHg 75%
    16:00 +16°C° 0.2 mm 3 mps 733 mmHg 75%
    17:00 +16°C° 0.2 mm 3 mps 732 mmHg 74%
    18:00 +14°C° 0.1 mm 3 mps 733 mmHg 78%
    19:00 +13°C° 0.1 mm 3 mps 733 mmHg 83%
    20:00 +11°C° 0.1 mm 3 mps 733 mmHg 88%
    21:00 +10°C° 0 mm 3 mps 733 mmHg 90%
    22:00 +10°C° 0 mm 3 mps 733 mmHg 92%
    23:00 +9°C° 0 mm 3 mps 733 mmHg 94%

    Tomorrow, 5 June, Friday

    Time Temperature Precipitation Wind Pressure Humidity
    00:00 +9°C° 0 mm 3 mps 733 mmHg 94%
    01:00 +9°C° 0 mm 3 mps 733 mmHg 95%
    02:00 +8°C° 0 mm 3 mps 733 mmHg 96%
    03:00 +9°C° 0 mm 3 mps 733 mmHg 96%
    04:00 +9°C° 0 mm 3 mps 733 mmHg 96%
    05:00 +9°C° 0 mm 3 mps 733 mmHg 96%
    06:00 +10°C° 0.1 mm 3 mps 733 mmHg 94%
    07:00 +11°C° 0.1 mm 3 mps 734 mmHg 92%
    08:00 +12°C° 0.1 mm 3 mps 734 mmHg 90%
    09:00 +13°C° 0 mm 3 mps 734 mmHg 88%
    10:00 +14°C° 0 mm 3 mps 734 mmHg 86%
    11:00 +14°C° 0 mm 3 mps 734 mmHg 84%
    12:00 +16°C° 0 mm 3 mps 734 mmHg 79%
    13:00 +18°C° 0 mm 3 mps 734 mmHg 74%
    14:00 +19°C° 0 mm 3 mps 734 mmHg 69%
    15:00 +19°C° 0 mm 3 mps 735 mmHg 70%
    16:00 +19°C° 0 mm 3 mps 735 mmHg 70%
    17:00 +20°C° 0 mm 3 mps 735 mmHg 70%
    18:00 +18°C° 0 mm 3 mps 735 mmHg 77%
    19:00 +17°C° 0 mm 3 mps 735 mmHg 84%
    20:00 +14°C° 0 mm 3 mps 735 mmHg 90%
    21:00 +14°C° 0 mm 3 mps 736 mmHg 92%
    22:00 +13°C° 0 mm 3 mps 736 mmHg 94%
    23:00 +13°C° 0 mm 3 mps 736 mmHg 96%

    Day after tomorrow, 6 June, Saturday

    Time Temperature Precipitation Wind Pressure Humidity
    00:00 +13°C° 0 mm 3 mps 736 mmHg 96%
    01:00 +14°C° 0 mm 4 mps 736 mmHg 96%
    02:00 +14°C° 0 mm 4 mps 736 mmHg 96%
    03:00 +14°C° 0 mm 4 mps 736 mmHg 96%
    04:00 +14°C° 0 mm 4 mps 736 mmHg 95%
    05:00 +14°C° 0 mm 4 mps 736 mmHg 95%
    06:00 +15°C° 0 mm 4 mps 737 mmHg 92%
    07:00 +17°C° 0 mm 5 mps 737 mmHg 89%
    08:00 +19°C° 0 mm 5 mps 737 mmHg 86%
    09:00 +20°C° 0.3 mm 5 mps 738 mmHg 85%
    10:00 +21°C° 0.3 mm 6 mps 738 mmHg 83%
    11:00 +22°C° 0.3 mm 6 mps 738 mmHg 82%
    12:00 +23°C° 0.5 mm 6 mps 738 mmHg 80%
    13:00 +23°C° 0.5 mm 6 mps 739 mmHg 79%
    14:00 +23°C° 0.5 mm 6 mps 739 mmHg 77%
    15:00 +23°C° 0.7 mm 5 mps 739 mmHg 80%
    16:00 +23°C° 0.7 mm 5 mps 739 mmHg 82%
    17:00 +22°C° 0.7 mm 4 mps 739 mmHg 85%
    18:00 +21°C° 0.6 mm 3 mps 739 mmHg 87%
    19:00 +20°C° 0.6 mm 3 mps 740 mmHg 89%
    20:00 +19°C° 0.6 mm 2 mps 740 mmHg 91%
    21:00 +18°C° 0.1 mm 2 mps 741 mmHg 92%
    22:00 +17°C° 0.1 mm 2 mps 741 mmHg 92%
    23:00 +16°C° 0.1 mm 2 mps 741 mmHg 93%

    7 June, Sunday

    Time Temperature Precipitation Wind Pressure Humidity
    00:00 +16°C° 0 mm 1 mps 742 mmHg 93%
    01:00 +15°C° 0 mm 1 mps 742 mmHg 92%
    02:00 +14°C° 0 mm 0 mps 742 mmHg 92%
    03:00 +14°C° 0 mm 0 mps 743 mmHg 92%
    04:00 +16°C° 0 mm 1 mps 743 mmHg 92%
    05:00 +16°C° 0 mm 1 mps 743 mmHg 93%
    06:00 +18°C° 0 mm 2 mps 743 mmHg 90%
    07:00 +19°C° 0 mm 2 mps 743 mmHg 88%
    08:00 +21°C° 0 mm 3 mps 744 mmHg 86%
    09:00 +22°C° 0.6 mm 3 mps 744 mmHg 84%
    10:00 +22°C° 0.6 mm 3 mps 744 mmHg 82%
    11:00 +23°C° 0.6 mm 4 mps 744 mmHg 80%
    12:00 +25°C° 1.2 mm 4 mps 744 mmHg 78%
    13:00 +25°C° 1.2 mm 4 mps 744 mmHg 77%
    14:00 +26°C° 1.2 mm 5 mps 743 mmHg 75%
    15:00 +26°C° 1 mm 4 mps 743 mmHg 77%
    16:00 +25°C° 1 mm 3 mps 743 mmHg 79%
    17:00 +25°C° 1 mm 2 mps 743 mmHg 81%
    18:00 +24°C° 0 mm 3 mps 743 mmHg 83%
    19:00 +22°C° 0 mm 3 mps 743 mmHg 86%
    20:00 +20°C° 0 mm 3 mps 743 mmHg 88%
    21:00 +20°C° 0 mm 3 mps 743 mmHg 90%
    22:00 +19°C° 0 mm 3 mps 744 mmHg 92%
    23:00 +18°C° 0 mm 4 mps 744 mmHg 93%

    8 June, Monday

    Time Temperature Precipitation Wind Pressure Humidity
    00:00 +18°C° 0 mm 3 mps 744 mmHg 94%
    01:00 +17°C° 0 mm 3 mps 744 mmHg 94%
    02:00 +16°C° 0 mm 3 mps 744 mmHg 94%
    03:00 +16°C° 0 mm 3 mps 744 mmHg 95%
    04:00 +16°C° 0 mm 3 mps 744 mmHg 95%
    05:00 +16°C° 0 mm 3 mps 744 mmHg 96%
    06:00 +18°C° 0 mm 3 mps 744 mmHg 93%
    07:00 +20°C° 0 mm 3 mps 744 mmHg 90%
    08:00 +22°C° 0 mm 3 mps 745 mmHg 88%
    09:00 +24°C° 0.1 mm 3 mps 745 mmHg 82%
    10:00 +25°C° 0.1 mm 3 mps 745 mmHg 77%
    11:00 +26°C° 0.1 mm 3 mps 745 mmHg 71%
    12:00 +27°C° 0.2 mm 4 mps 745 mmHg 70%
    13:00 +27°C° 0.2 mm 4 mps 744 mmHg 68%
    14:00 +27°C° 0.2 mm 4 mps 744 mmHg 67%
    15:00 +27°C° 0.1 mm 4 mps 744 mmHg 70%
    16:00 +27°C° 0.1 mm 3 mps 744 mmHg 74%
    17:00 +27°C° 0.1 mm 3 mps 744 mmHg 78%
    18:00 +25°C° 0 mm 3 mps 744 mmHg 81%
    19:00 +22°C° 0 mm 3 mps 744 mmHg 84%
    20:00 +21°C° 0 mm 3 mps 743 mmHg 87%
    21:00 +20°C° 0 mm 3 mps 744 mmHg 88%
    22:00 +20°C° 0 mm 3 mps 744 mmHg 90%
    23:00 +19°C° 0 mm 3 mps 744 mmHg 92%

    9 June, Tuesday

    Time Temperature Precipitation Wind Pressure Humidity
    00:00 +19°C° 0 mm 3 mps 744 mmHg 93%
    01:00 +18°C° 0 mm 3 mps 744 mmHg 93%
    02:00 +18°C° 0 mm 3 mps 744 mmHg 94%
    03:00 +18°C° 0 mm 3 mps 744 mmHg 94%
    04:00 +18°C° 0 mm 3 mps 744 mmHg 94%
    05:00 +18°C° 0 mm 3 mps 744 mmHg 94%
    06:00 +20°C° 0 mm 4 mps 744 mmHg 90%
    07:00 +21°C° 0 mm 4 mps 744 mmHg 87%
    08:00 +23°C° 0 mm 4 mps 745 mmHg 83%
    09:00 +25°C° 0.1 mm 5 mps 745 mmHg 79%
    10:00 +26°C° 0.1 mm 5 mps 745 mmHg 75%
    11:00 +27°C° 0.1 mm 5 mps 745 mmHg 70%
    12:00 +27°C° 0.4 mm 5 mps 745 mmHg 70%
    13:00 +27°C° 0.4 mm 5 mps 744 mmHg 71%
    14:00 +28°C° 0.4 mm 5 mps 744 mmHg 71%
    15:00 +27°C° 0.6 mm 4 mps 744 mmHg 74%
    16:00 +27°C° 0.6 mm 4 mps 744 mmHg 76%
    17:00 +27°C° 0.6 mm 3 mps 744 mmHg 79%
    18:00 +25°C° 0.1 mm 3 mps 744 mmHg 82%
    19:00 +24°C° 0.1 mm 3 mps 744 mmHg 85%
    20:00 +22°C° 0.1 mm 3 mps 744 mmHg 88%
    21:00 +21°C° 0 mm 3 mps 744 mmHg 90%
    22:00 +20°C° 0 mm 3 mps 744 mmHg 91%
    23:00 +20°C° 0 mm 3 mps 745 mmHg 93%
    Show more